When you browse on this site, cookies collect data to enhance your experience and personalize the content and advertising you see.
Visit our Privacy Policy to learn more. By continuing to use the site, you agree to this use of cookies and data.
  • In Österreich
  • Länderverzeichnis
  • Für 7 Tage
  • Wassertemperatur
  • Satellitenkarten
  • Wetterkarte
  • News
  • Widgets
  • user-avatar
    Anmelden

    Stündliche Wetter Tokyo

    Heute, 20 Juli, Samstag

    Zeit Temperatur Niederschläge Wind Luftdruck Luftfeuchtigkeit
    00:00 +30°C° 0.1 mm 1 m/S 758 mmHg 62%
    01:00 +30°C° 0.1 mm 1 m/S 757 mmHg 62%
    02:00 +30°C° 0.1 mm 1 m/S 757 mmHg 63%
    03:00 +30°C° 0 mm 1 m/S 757 mmHg 62%
    04:00 +29°C° 0.2 mm 1 m/S 758 mmHg 63%
    05:00 +29°C° 0.2 mm 1 m/S 758 mmHg 63%
    06:00 +29°C° 0.2 mm 1 m/S 759 mmHg 64%
    07:00 +30°C° 0 mm 1 m/S 759 mmHg 62%
    08:00 +30°C° 0 mm 1 m/S 759 mmHg 60%
    09:00 +31°C° 0 mm 1 m/S 759 mmHg 61%
    10:00 +32°C° 0 mm 1 m/S 759 mmHg 58%
    11:00 +32°C° 0 mm 2 m/S 759 mmHg 54%
    12:00 +34°C° 0 mm 2 m/S 759 mmHg 51%
    13:00 +35°C° 0 mm 2 m/S 758 mmHg 49%
    14:00 +35°C° 0 mm 2 m/S 758 mmHg 48%
    15:00 +34°C° 0 mm 3 m/S 758 mmHg 55%
    16:00 +34°C° 0.1 mm 3 m/S 758 mmHg 58%
    17:00 +33°C° 0.1 mm 3 m/S 759 mmHg 61%
    18:00 +31°C° 0.1 mm 3 m/S 759 mmHg 64%
    19:00 +31°C° 0.2 mm 3 m/S 759 mmHg 64%
    20:00 +31°C° 0.2 mm 2 m/S 759 mmHg 63%
    21:00 +31°C° 0.2 mm 1 m/S 759 mmHg 63%
    22:00 +30°C° 0 mm 2 m/S 759 mmHg 66%
    23:00 +30°C° 0 mm 2 m/S 759 mmHg 68%

    Morgen, 21 Juli, Sonntag

    Zeit Temperatur Niederschläge Wind Luftdruck Luftfeuchtigkeit
    00:00 +29°C° 0 mm 2 m/S 759 mmHg 70%
    01:00 +29°C° 0 mm 2 m/S 759 mmHg 72%
    02:00 +29°C° 0 mm 2 m/S 759 mmHg 74%
    03:00 +29°C° 0 mm 3 m/S 758 mmHg 76%
    04:00 +28°C° 0 mm 3 m/S 759 mmHg 76%
    05:00 +28°C° 0 mm 2 m/S 759 mmHg 76%
    06:00 +28°C° 0 mm 2 m/S 759 mmHg 77%
    07:00 +29°C° 0 mm 3 m/S 759 mmHg 75%
    08:00 +29°C° 0 mm 3 m/S 759 mmHg 73%
    09:00 +30°C° 0 mm 3 m/S 759 mmHg 71%
    10:00 +30°C° 0 mm 3 m/S 759 mmHg 68%
    11:00 +31°C° 0 mm 3 m/S 759 mmHg 65%
    12:00 +31°C° 0 mm 3 m/S 759 mmHg 62%
    13:00 +33°C° 0.1 mm 4 m/S 758 mmHg 62%
    14:00 +33°C° 0.1 mm 4 m/S 758 mmHg 62%
    15:00 +33°C° 0.1 mm 4 m/S 758 mmHg 61%
    16:00 +32°C° 0.1 mm 4 m/S 758 mmHg 64%
    17:00 +30°C° 0.1 mm 4 m/S 758 mmHg 67%
    18:00 +30°C° 0.1 mm 4 m/S 758 mmHg 70%
    19:00 +29°C° 0.1 mm 4 m/S 758 mmHg 72%
    20:00 +29°C° 0.1 mm 4 m/S 758 mmHg 74%
    21:00 +28°C° 0.1 mm 4 m/S 758 mmHg 77%
    22:00 +28°C° 0.2 mm 4 m/S 758 mmHg 78%
    23:00 +27°C° 0.2 mm 4 m/S 758 mmHg 79%

    übermorgen, 22 Juli, Montag

    Zeit Temperatur Niederschläge Wind Luftdruck Luftfeuchtigkeit
    00:00 +27°C° 0.2 mm 4 m/S 758 mmHg 80%
    01:00 +27°C° 0.3 mm 4 m/S 757 mmHg 80%
    02:00 +26°C° 0.3 mm 4 m/S 757 mmHg 80%
    03:00 +26°C° 0.3 mm 4 m/S 757 mmHg 80%
    04:00 +26°C° 0.1 mm 4 m/S 757 mmHg 81%
    05:00 +26°C° 0.1 mm 3 m/S 757 mmHg 81%
    06:00 +26°C° 0.1 mm 3 m/S 757 mmHg 82%
    07:00 +26°C° 0.2 mm 3 m/S 757 mmHg 81%
    08:00 +26°C° 0.2 mm 3 m/S 757 mmHg 80%
    09:00 +26°C° 0.2 mm 3 m/S 757 mmHg 79%
    10:00 +26°C° 0.1 mm 3 m/S 757 mmHg 78%
    11:00 +27°C° 0.1 mm 2 m/S 756 mmHg 77%
    12:00 +27°C° 0.1 mm 2 m/S 756 mmHg 76%
    13:00 +27°C° 0.1 mm 2 m/S 756 mmHg 76%
    14:00 +27°C° 0.1 mm 3 m/S 755 mmHg 76%
    15:00 +27°C° 0.1 mm 3 m/S 755 mmHg 76%
    16:00 +27°C° 0.1 mm 3 m/S 755 mmHg 77%
    17:00 +27°C° 0.1 mm 3 m/S 755 mmHg 77%
    18:00 +27°C° 0.1 mm 3 m/S 755 mmHg 77%
    19:00 +27°C° 0.2 mm 3 m/S 755 mmHg 79%
    20:00 +27°C° 0.2 mm 3 m/S 755 mmHg 80%
    21:00 +26°C° 0.2 mm 2 m/S 755 mmHg 81%
    22:00 +26°C° 0.1 mm 2 m/S 755 mmHg 81%
    23:00 +26°C° 0.1 mm 2 m/S 754 mmHg 82%

    23 Juli, Dienstag

    Zeit Temperatur Niederschläge Wind Luftdruck Luftfeuchtigkeit
    00:00 +26°C° 0.1 mm 1 m/S 754 mmHg 82%
    01:00 +26°C° 0 mm 1 m/S 754 mmHg 82%
    02:00 +26°C° 0 mm 1 m/S 753 mmHg 83%
    03:00 +26°C° 0 mm 1 m/S 753 mmHg 83%
    04:00 +26°C° 0 mm 1 m/S 753 mmHg 83%
    05:00 +26°C° 0 mm 1 m/S 753 mmHg 83%
    06:00 +26°C° 0 mm 1 m/S 753 mmHg 82%
    07:00 +27°C° 0 mm 1 m/S 753 mmHg 77%
    08:00 +28°C° 0 mm 1 m/S 753 mmHg 72%
    09:00 +29°C° 0 mm 1 m/S 753 mmHg 67%
    10:00 +30°C° 0 mm 1 m/S 752 mmHg 62%
    11:00 +31°C° 0 mm 1 m/S 752 mmHg 57%
    12:00 +32°C° 0 mm 2 m/S 752 mmHg 53%
    13:00 +34°C° 0 mm 2 m/S 751 mmHg 52%
    14:00 +34°C° 0 mm 2 m/S 751 mmHg 51%
    15:00 +34°C° 0 mm 2 m/S 751 mmHg 50%
    16:00 +34°C° 0.1 mm 2 m/S 751 mmHg 51%
    17:00 +34°C° 0.1 mm 3 m/S 751 mmHg 53%
    18:00 +33°C° 0.1 mm 3 m/S 751 mmHg 55%
    19:00 +33°C° 0.1 mm 3 m/S 751 mmHg 58%
    20:00 +31°C° 0.1 mm 3 m/S 752 mmHg 61%
    21:00 +30°C° 0.1 mm 3 m/S 752 mmHg 64%
    22:00 +30°C° 0.2 mm 3 m/S 752 mmHg 66%
    23:00 +29°C° 0.2 mm 2 m/S 752 mmHg 68%

    24 Juli, Mittwoch

    Zeit Temperatur Niederschläge Wind Luftdruck Luftfeuchtigkeit
    00:00 +29°C° 0.2 mm 2 m/S 752 mmHg 71%
    01:00 +29°C° 0.4 mm 2 m/S 752 mmHg 72%
    02:00 +29°C° 0.4 mm 2 m/S 752 mmHg 73%
    03:00 +28°C° 0.4 mm 2 m/S 752 mmHg 75%
    04:00 +28°C° 0.3 mm 2 m/S 752 mmHg 75%
    05:00 +28°C° 0.3 mm 2 m/S 752 mmHg 76%
    06:00 +28°C° 0.3 mm 2 m/S 752 mmHg 77%
    07:00 +29°C° 0 mm 2 m/S 752 mmHg 71%
    08:00 +30°C° 0 mm 2 m/S 753 mmHg 66%
    09:00 +31°C° 0 mm 1 m/S 753 mmHg 61%
    10:00 +32°C° 0 mm 2 m/S 753 mmHg 57%
    11:00 +34°C° 0 mm 3 m/S 752 mmHg 53%
    12:00 +35°C° 0 mm 4 m/S 752 mmHg 49%
    13:00 +35°C° 0 mm 5 m/S 752 mmHg 49%
    14:00 +35°C° 0 mm 5 m/S 752 mmHg 50%
    15:00 +35°C° 0 mm 6 m/S 752 mmHg 51%
    16:00 +35°C° 0 mm 6 m/S 752 mmHg 54%
    17:00 +34°C° 0 mm 6 m/S 752 mmHg 57%
    18:00 +33°C° 0 mm 6 m/S 752 mmHg 59%
    19:00 +33°C° 0 mm 6 m/S 753 mmHg 61%
    20:00 +33°C° 0 mm 6 m/S 753 mmHg 62%
    21:00 +32°C° 0 mm 6 m/S 754 mmHg 64%
    22:00 +32°C° 0 mm 6 m/S 754 mmHg 66%
    23:00 +30°C° 0 mm 5 m/S 754 mmHg 69%

    25 Juli, Donnerstag

    Zeit Temperatur Niederschläge Wind Luftdruck Luftfeuchtigkeit
    00:00 +30°C° 0 mm 5 m/S 754 mmHg 71%
    01:00 +30°C° 0 mm 5 m/S 754 mmHg 72%
    02:00 +29°C° 0 mm 4 m/S 754 mmHg 73%
    03:00 +29°C° 0 mm 3 m/S 754 mmHg 73%
    04:00 +29°C° 0 mm 3 m/S 754 mmHg 72%
    05:00 +30°C° 0 mm 3 m/S 754 mmHg 70%
    06:00 +30°C° 0 mm 3 m/S 754 mmHg 69%
    07:00 +31°C° 0 mm 2 m/S 755 mmHg 66%
    08:00 +32°C° 0 mm 2 m/S 755 mmHg 62%
    09:00 +32°C° 0 mm 2 m/S 755 mmHg 59%
    10:00 +34°C° 0 mm 2 m/S 755 mmHg 56%
    11:00 +35°C° 0 mm 3 m/S 755 mmHg 53%
    12:00 +36°C° 0 mm 3 m/S 755 mmHg 50%
    13:00 +35°C° 0 mm 4 m/S 755 mmHg 51%
    14:00 +35°C° 0 mm 4 m/S 755 mmHg 52%
    15:00 +35°C° 0 mm 5 m/S 755 mmHg 54%
    16:00 +34°C° 0 mm 5 m/S 755 mmHg 56%
    17:00 +34°C° 0 mm 5 m/S 755 mmHg 58%
    18:00 +33°C° 0 mm 5 m/S 755 mmHg 61%
    19:00 +33°C° 0 mm 6 m/S 756 mmHg 62%
    20:00 +33°C° 0 mm 6 m/S 756 mmHg 63%
    21:00 +32°C° 0 mm 7 m/S 757 mmHg 64%
    22:00 +32°C° 0 mm 7 m/S 757 mmHg 65%
    23:00 +32°C° 0 mm 7 m/S 756 mmHg 66%
    Mehr zeigen